DW2248 Weather Reports


time (UTC)temp
C
wind
direction
speed
KPH
gust
KPH
rain 1hr
cm
rain 24hr
cm
rain mn
cm
humidity
%
barometer
mb
20260502162305 20 84 0.0 0.0 0.00 0.00 0.00 73 1014.3
20260502160805 20 303 0.0 0.0 0.00 0.00 0.00 72 1014.4
20260502152305 20 84 0.0 0.0 0.00 0.00 0.00 73 1015.0
20260502122306 26 192 0.0 0.0 0.00 0.00 0.00 40 1016.6
20260502120804 26 254 0.0 0.0 0.00 0.00 0.00 37 1017.0
20260502115306 25 322 0.0 0.0 0.00 0.00 0.00 40 1017.1
20260502113803 25 224 0.0 0.0 0.00 0.00 0.00 41 1017.3
20260502112305 25 257 0.0 1.6 0.00 0.00 0.00 40 1017.7
20260502110803 25 231 0.0 0.0 0.00 0.00 0.00 40 1017.9
20260502105306 24 243 0.0 1.6 0.00 0.00 0.00 42 1018.0
20260502103803 23 195 0.0 0.0 0.00 0.00 0.00 45 1018.3
20260502102306 22 224 0.0 0.0 0.00 0.00 0.00 46 1018.4
20260502100802 22 195 0.0 0.0 0.00 0.00 0.00 46 1018.4
20260502090802 20 197 0.0 1.6 0.00 0.00 0.00 50 1019.0
20260502065306 14 84 0.0 0.0 0.00 0.00 0.00 64 1019.4
20260502063806 13 84 0.0 0.0 0.00 0.00 0.00 65 1019.4
20260502062306 13 84 0.0 0.0 0.00 0.00 0.00 65 1019.4
20260502060805 12 84 0.0 0.0 0.00 0.00 0.00 69 1019.4
20260502055306 11 84 0.0 0.0 0.00 0.00 0.00 72 1019.4
20260502053805 11 84 0.0 0.0 0.00 0.00 0.00 72 1019.4
20260502052306 10 84 0.0 0.0 0.00 0.00 0.00 72 1019.6
20260502045306 10 84 0.0 0.0 0.00 0.00 0.00 73 1019.4
20260502043804 10 84 0.0 0.0 0.00 0.00 0.00 73 1019.4
20260502042306 10 84 0.0 0.0 0.00 0.00 0.00 73 1019.4
20260502040804 10 84 0.0 0.0 0.00 0.00 0.00 72 1019.4
20260502033804 10 84 0.0 0.0 0.00 0.00 0.00 70 1019.6
20260502032306 10 84 0.0 0.0 0.00 0.00 0.00 69 1019.6
20260502030804 11 84 0.0 0.0 0.00 0.00 0.00 68 1019.7
20260502025306 11 84 0.0 0.0 0.00 0.00 0.00 67 1019.8
20260502023803 11 84 0.0 0.0 0.00 0.00 0.00 67 1019.9
20260502020803 11 84 0.0 0.0 0.00 0.00 0.00 66 1020.0
20260502015305 11 84 0.0 0.0 0.00 0.00 0.00 66 1020.0
20260502013803 11 84 0.0 0.0 0.00 0.00 0.00 65 1020.2
20260502012306 11 84 0.0 0.0 0.00 0.00 0.00 65 1020.3
20260502002305 12 84 0.0 0.0 0.00 0.00 0.00 61 1020.9
20260501235305 13 84 0.0 0.0 0.00 0.00 0.00 58 1021.1
20260501233801 13 84 0.0 0.0 0.00 0.00 0.00 56 1021.2
20260501225301 13 84 0.0 0.0 0.00 0.00 0.00 56 1021.3
20260501223801 14 84 0.0 0.0 0.00 0.00 0.00 52 1021.3
20260501222301 15 84 0.0 0.0 0.00 0.00 0.00 50 1021.4
20260501220801 15 84 0.0 0.0 0.00 0.00 0.00 50 1021.4
20260501213800 16 84 0.0 0.0 0.00 0.00 0.00 45 1021.5
20260501212300 16 84 0.0 0.0 0.00 0.00 0.00 44 1021.5
20260501210800 16 84 0.0 0.0 0.00 0.00 0.00 43 1021.5
20260501205306 16 84 0.0 0.0 0.00 0.00 0.00 45 1021.5
20260501203805 17 84 0.0 0.0 0.00 0.00 0.00 44 1021.5
20260501202306 17 84 0.0 0.0 0.00 0.00 0.00 40 1021.6
20260501200807 18 84 0.0 0.0 0.00 0.00 0.00 37 1021.6
20260501195306 18 84 0.0 0.0 0.00 0.00 0.00 36 1021.6
20260501193804 18 84 0.0 0.0 0.00 0.00 0.00 35 1021.4
20260501192306 19 84 0.0 0.0 0.00 0.00 0.00 33 1021.4
20260501190804 20 84 0.0 0.0 0.00 0.00 0.00 32 1021.3
20260501185306 20 84 0.0 0.0 0.00 0.00 0.00 31 1021.3
20260501183804 21 84 0.0 0.0 0.00 0.00 0.00 31 1021.3
20260501182306 21 84 0.0 0.0 0.00 0.00 0.00 29 1021.3
20260501180804 22 84 0.0 0.0 0.00 0.00 0.00 28 1021.4
20260501175306 22 84 0.0 1.6 0.00 0.00 0.00 27 1021.2
20260501173804 22 200 0.0 1.6 0.00 0.00 0.00 26 1021.2
20260501170804 23 199 0.0 0.0 0.00 0.00 0.00 25 1021.2
20260501163803 23 215 1.6 19.3 0.00 0.00 0.00 23 1021.3